Location: Little Chesterford
(52.0500°N, 0.1833°E)
Time: 19:43:35
(UTC+00:00)

Cosmos 1943 Rocket - Pass Details

Date: 26 September 2023
Orbit: 812 x 843 km, 71.0° (Epoch: 08 December)

Event Time Altitude Azimuth Distance (km) Brightness Sun altitude
Rises 21:38:03 0° 324° (NW) 3,412 6.5 -32.3°
Reaches altitude 10° 21:40:45 10° 314° (NW) 2,472 5.5 -32.6°
Enters shadow 21:45:20 30° 261° (W) 1,464 3.6 -33.0°
